DW7371 Weather Reports


Display with metric or nautical units.
time (UTC)temp
F
wind
direction
speed
MPH
gust
MPH
rain 1hr
in
rain 24hr
in
rain mn
in
humidity
%
barometer
mb
20260903153957 58 197 2.0 10.0 0.00 0.09 0.01 84 1006.0
20260903151819 57 183 2.0 11.0 0.00 0.09 0.01 85 1005.8
20260903150801 57 170 3.0 9.0 0.00 0.09 0.01 86 1005.8
20260903145755 57 215 4.0 9.0 0.00 0.09 0.01 86 1005.7
20260903144818 56 209 4.0 13.0 0.00 0.09 0.01 87 1005.6
20260903143841 56 78 4.0 13.0 0.00 0.09 0.01 87 1005.6
20260903142823 56 217 3.0 13.0 0.00 0.09 0.01 88 1005.5
20260903141814 56 204 1.0 10.0 0.00 0.09 0.01 89 1005.5
20260903140811 56 140 3.0 10.0 0.00 0.09 0.01 89 1005.3
20260903135815 56 239 3.0 9.0 0.00 0.09 0.01 89 1005.3
20260903134818 56 144 3.0 11.0 0.00 0.09 0.01 89 1005.2
20260903133809 56 162 4.0 11.0 0.00 0.09 0.01 90 1005.1
20260903132749 55 150 4.0 14.0 0.00 0.09 0.01 90 1005.0
20260903131752 55 187 4.0 14.0 0.00 0.09 0.01 90 1004.9
20260903130807 55 199 3.0 10.0 0.00 0.09 0.01 90 1004.7
20260903125745 55 219 3.0 12.0 0.00 0.09 0.01 89 1004.7
20260903124747 56 195 5.0 17.0 0.00 0.09 0.01 87 1004.6
20260903122658 57 175 5.0 16.0 0.00 0.08 0.00 83 1004.5
20260903121645 57 200 4.0 16.0 0.00 0.08 0.00 83 1004.5
20260903120710 57 103 5.0 16.0 0.00 0.08 0.00 82 1004.3
20260903115733 57 206 5.0 14.0 0.00 0.08 0.00 82 1004.2
20260903113555 58 192 5.0 16.0 0.00 0.08 0.00 82 1004.1
20260903105133 58 200 5.0 16.0 0.00 0.08 0.00 82 1003.8
20260903104150 58 184 4.0 18.0 0.00 0.08 0.00 82 1003.7
20260903103214 57 131 4.0 18.0 0.00 0.08 0.00 82 1003.7
20260903101044 58 172 6.0 14.0 0.00 0.08 0.00 82 1003.6
20260903100010 58 175 3.0 11.0 0.00 0.08 0.00 82 1003.6
20260903094940 57 267 3.0 18.0 0.00 0.08 0.00 82 1003.6
20260903094004 58 170 4.0 18.0 0.00 0.08 0.00 82 1003.5
20260903093002 58 225 4.0 15.0 0.00 0.08 0.00 82 1003.6
20260903092005 58 221 3.0 15.0 0.00 0.08 0.00 83 1003.6
20260903090949 58 261 2.0 10.0 0.00 0.08 0.00 83 1003.5
20260903085931 58 47 3.0 10.0 0.00 0.08 0.00 84 1003.5
20260903084947 58 329 2.0 8.0 0.00 0.08 0.00 84 1003.5
20260903083932 58 230 3.0 13.0 0.00 0.08 0.00 84 1003.5
20260903082914 58 205 2.0 16.0 0.00 0.08 0.00 84 1003.6
20260903080821 58 88 2.0 10.0 0.00 0.08 0.00 83 1003.5
20260903075751 58 41 1.0 10.0 0.00 0.08 0.00 83 1003.5
20260903074731 58 179 2.0 12.0 0.00 0.08 0.00 83 1003.5
20260903073709 58 281 2.0 12.0 0.00 0.08 0.00 83 1003.5
20260903072709 58 155 2.0 9.0 0.00 0.08 0.00 83 1003.5
20260903071715 58 173 2.0 11.0 0.00 0.08 0.00 84 1003.5
20260903070735 58 157 3.0 11.0 0.00 0.08 0.00 84 1003.5
20260903065725 58 221 2.0 9.0 0.00 0.08 0.08 85 1003.4
20260903064732 58 188 1.0 7.0 0.00 0.08 0.08 85 1003.4
20260903063745 57 201 1.0 13.0 0.00 0.08 0.08 86 1003.3
20260903062715 57 84 2.0 13.0 0.00 0.08 0.08 86 1003.2
20260903061643 57 130 2.0 11.0 0.00 0.08 0.08 88 1003.2
20260903060648 57 192 4.0 11.0 0.00 0.08 0.08 88 1003.1
20260903055627 57 151 3.0 11.0 0.00 0.08 0.08 88 1003.2
20260903054603 57 174 3.0 11.0 0.00 0.08 0.08 88 1003.3
20260903052456 57 279 3.0 16.0 0.00 0.08 0.08 88 1003.3
20260903051507 57 165 4.0 16.0 0.00 0.08 0.08 88 1003.3
20260903050433 57 148 4.0 14.0 0.00 0.08 0.08 89 1003.0
20260903045405 57 188 5.0 14.0 0.00 0.08 0.08 89 1003.1
20260903044347 57 148 2.0 12.0 0.00 0.08 0.08 89 1002.9
20260903043333 57 204 3.0 12.0 0.00 0.08 0.08 88 1002.9
20260903040021 57 140 1.0 6.0 0.00 0.08 0.08 86 1002.5
20260903035037 57 115 2.0 7.0 0.00 0.08 0.08 86 1002.3
20260903034054 57 66 2.0 7.0 0.00 0.08 0.08 86 1001.8
20260903033119 58 122 2.0 13.0 0.00 0.08 0.08 85 1001.7
20260903032130 58 173 3.0 13.0 0.00 0.08 0.08 84 1001.6
20260903031153 59 181 5.0 18.0 0.00 0.08 0.08 83 1001.5
20260903030137 59 163 8.0 18.0 0.00 0.08 0.08 83 1001.3
20260903025108 59 140 7.0 17.0 0.00 0.08 0.08 83 1001.0
20260903024109 59 128 7.0 16.0 0.00 0.08 0.08 83 1000.6
20260903023114 60 141 7.0 16.0 0.00 0.08 0.08 83 1000.2
20260903022044 60 172 7.0 18.0 0.00 0.08 0.08 83 1000.0
20260903021031 60 225 7.0 18.0 0.00 0.08 0.08 83 999.9
20260903020054 60 169 7.0 21.0 0.00 0.08 0.08 83 999.7
20260903015026 60 11 7.0 21.0 0.00 0.08 0.08 82 999.6
20260903011832 59 209 7.0 24.0 0.00 0.08 0.08 84 998.9
20260903005711 59 146 6.0 23.0 0.00 0.08 0.08 87 998.8
20260903004700 58 240 5.0 18.0 0.00 0.08 0.08 90 999.0
20260903003651 57 156 4.0 17.0 0.00 0.08 0.08 90 999.2
20260903001543 57 160 6.0 21.0 0.06 0.06 0.06 91 999.7
20260903000522 57 227 5.0 15.0 0.10 0.06 0.06 91 999.8
20260902235517 57 169 6.0 19.0 0.06 0.04 0.04 89 999.9
20260902234445 58 186 5.0 19.0 0.17 0.03 0.03 88 999.9
20260902232314 60 185 4.0 18.0 0.00 0.00 0.00 81 999.9
20260902231251 61 200 7.0 19.0 0.00 0.00 0.00 77 999.9
20260902230309 62 194 7.0 19.0 0.00 0.00 0.00 76 999.9
20260902225240 62 136 8.0 17.0 0.00 0.00 0.00 76 1000.0
20260902224248 63 235 5.0 16.0 0.00 0.00 0.00 76 1000.0
20260902221027 64 206 7.0 19.0 0.00 0.00 0.00 73 999.9
20260902220030 64 231 8.0 19.0 0.00 0.00 0.00 72 1000.0
20260902213845 63 200 6.0 17.0 0.00 0.00 0.00 74 1000.2
20260902211701 64 172 7.0 16.0 0.00 0.00 0.00 73 1000.1
20260902210700 65 163 6.0 19.0 0.00 0.00 0.00 70 1000.1
20260902205630 65 196 6.0 19.0 0.00 0.00 0.00 66 1000.0
20260902204646 65 204 6.0 18.0 0.00 0.00 0.00 65 1000.1
20260902202509 65 171 6.0 22.0 0.00 0.00 0.00 66 1000.3
20260902201524 65 178 7.0 22.0 0.00 0.00 0.00 66 1000.3
20260902200514 65 186 7.0 19.0 0.00 0.00 0.00 65 1000.1
20260902195454 65 203 7.0 19.0 0.00 0.00 0.00 66 1000.4
20260902194428 65 130 6.0 19.0 0.00 0.00 0.00 67 1000.4
20260902193441 65 202 7.0 15.0 0.00 0.00 0.00 67 1000.6
20260902191313 65 235 6.0 19.0 0.00 0.00 0.00 67 1000.8
20260902190306 66 187 7.0 19.0 0.00 0.00 0.00 66 1000.9
20260902185330 65 167 7.0 18.0 0.00 0.00 0.00 68 1001.1
20260902184349 65 246 7.0 21.0 0.00 0.00 0.00 69 1001.3
20260902183402 64 212 7.0 21.0 0.00 0.00 0.00 70 1001.3
20260902181250 64 186 8.0 24.0 0.00 0.00 0.00 72 1001.4
20260902180217 64 186 8.0 24.0 0.00 0.00 0.00 72 1001.6
20260902175202 64 161 7.0 18.0 0.00 0.00 0.00 72 1001.5
20260902174157 64 155 8.0 21.0 0.00 0.00 0.00 72 1001.6
20260902173128 63 189 6.0 21.0 0.00 0.00 0.00 74 1001.7
20260902172119 63 179 5.0 17.0 0.00 0.00 0.00 75 1001.9
20260902165905 63 171 5.0 21.0 0.00 0.00 0.00 76 1002.0
20260902164857 62 109 6.0 21.0 0.00 0.00 0.00 77 1002.1
20260902163835 62 155 5.0 15.0 0.00 0.00 0.00 78 1002.2
20260902161711 62 244 7.0 18.0 0.00 0.00 0.00 79 1002.2
20260902160729 62 161 8.0 18.0 0.00 0.00 0.00 79 1002.2
20260902155731 61 185 8.0 22.0 0.00 0.00 0.00 81 1002.3
20260902154753 60 151 7.0 22.0 0.00 0.00 0.00 82 1002.4